EW6655 Weather Reports


time (UTC)temp
C
wind
direction
speed
KPH
gust
KPH
rain 1hr
cm
rain 24hr
cm
rain mn
cm
humidity
%
barometer
mb
20260508133015 13 42 4.8 11.3 0.00 0.00 0.00 58 1017.4
20260508131515 12 11 6.4 14.5 0.00 0.00 0.00 61 1017.4
20260508130017 12 34 6.4 16.1 0.00 0.00 0.00 63 1017.4
20260508124513 12 89 3.2 12.9 0.00 0.00 0.00 65 1017.4
20260508123013 12 96 3.2 12.9 0.00 0.00 0.00 65 1017.5
20260508121518 12 98 4.8 14.5 0.00 0.00 0.00 66 1017.5
20260508120018 13 152 3.2 12.9 0.00 0.00 0.00 62 1017.5
20260508114525 12 96 1.6 9.7 0.00 0.00 0.00 61 1017.5
20260508113010 12 87 1.6 9.7 0.00 0.00 0.00 64 1017.5
20260508111511 12 100 1.6 8.0 0.00 0.00 0.00 63 1017.5
20260508110007 12 63 1.6 14.5 0.00 0.00 0.00 64 1017.4
20260508104507 12 101 4.8 14.5 0.00 0.00 0.00 66 1017.3
20260508103006 12 44 3.2 9.7 0.00 0.00 0.00 67 1017.4
20260508101507 13 98 1.6 8.0 0.00 0.00 0.00 65 1017.4
20260508100008 12 105 1.6 6.4 0.00 0.00 0.00 65 1017.4
20260508094504 12 74 1.6 6.4 0.00 0.00 0.00 63 1017.4
20260508093007 12 38 1.6 6.4 0.00 0.00 0.00 60 1017.4
20260508091600 12 36 4.8 9.7 0.00 0.00 0.00 63 1017.4
20260508090101 12 32 1.6 11.3 0.00 0.00 0.00 68 1017.4
20260508084553 12 208 0.0 6.4 0.00 0.00 0.00 71 1017.5
20260508083052 12 194 1.6 8.0 0.00 0.00 0.00 74 1017.4
20260508081548 11 223 1.6 6.4 0.00 0.00 0.00 75 1017.3
20260508080045 11 86 3.2 6.4 0.00 0.00 0.00 76 1017.3
20260508074542 11 248 0.0 3.2 0.00 0.00 0.00 81 1017.4
20260508073039 10 248 0.0 3.2 0.00 0.00 0.00 83 1017.4
20260508071534 10 248 0.0 1.6 0.00 0.00 0.00 86 1017.3
20260508070031 9 248 0.0 4.8 0.00 0.00 0.00 87 1017.3
20260508064548 9 248 0.0 3.2 0.00 0.00 0.00 89 1017.1
20260508063027 8 248 0.0 0.0 0.00 0.00 0.00 89 1017.0
20260508061520 8 248 0.0 0.0 0.00 0.00 0.00 91 1016.9
20260508060018 7 248 0.0 0.0 0.00 0.00 0.00 92 1016.9
20260508054527 7 248 0.0 0.0 0.00 0.00 0.00 92 1016.9
20260508053018 7 248 0.0 0.0 0.00 0.00 0.00 93 1016.9
20260508051524 6 248 0.0 4.8 0.00 0.00 0.00 92 1016.8
20260508050028 6 248 0.0 0.0 0.00 0.00 0.00 93 1016.7
20260508044518 6 248 0.0 0.0 0.00 0.00 0.00 92 1016.7
20260508043015 6 248 0.0 0.0 0.00 0.00 0.00 92 1016.5
20260508041515 6 248 0.0 3.2 0.00 0.00 0.00 93 1016.5
20260508040015 6 248 0.0 0.0 0.00 0.00 0.00 92 1016.4
20260508034522 6 248 0.0 1.6 0.00 0.00 0.00 92 1016.5
20260508033014 6 248 0.0 0.0 0.00 0.00 0.00 92 1016.4
20260508031513 6 248 0.0 0.0 0.00 0.00 0.00 92 1016.4
20260508030012 6 248 0.0 0.0 0.00 0.00 0.00 93 1016.5
20260508024515 6 248 0.0 0.0 0.00 0.00 0.00 92 1016.5
20260508023013 6 248 0.0 0.0 0.00 0.00 0.00 92 1016.5
20260508021511 6 248 0.0 0.0 0.00 0.00 0.00 92 1016.5
20260508020013 6 248 0.0 0.0 0.00 0.00 0.00 92 1016.5
20260508014509 6 248 0.0 1.6 0.00 0.03 0.00 91 1016.4
20260508013007 6 248 0.0 0.0 0.00 0.03 0.00 91 1016.4
20260508011509 6 248 0.0 1.6 0.00 0.03 0.00 91 1016.4
20260508010015 6 248 0.0 0.0 0.00 0.03 0.00 90 1016.4
20260508004502 6 248 0.0 3.2 0.00 0.03 0.00 90 1016.6
20260508003000 6 248 0.0 3.2 0.00 0.03 0.00 89 1016.6
20260508001600 6 248 0.0 0.0 0.00 0.03 0.00 89 1016.6
20260508000120 7 248 1.6 3.2 0.00 0.03 0.00 89 1016.7
20260507234556 7 248 1.6 6.4 0.00 0.03 0.00 89 1016.7
20260507233054 7 248 0.0 0.0 0.00 0.03 0.00 90 1016.8
20260507231559 7 248 0.0 1.6 0.00 0.03 0.00 89 1016.9
20260507230051 7 9 0.0 0.0 0.00 0.03 0.00 89 1016.9
20260507224552 7 9 0.0 0.0 0.00 0.03 0.00 89 1017.0
20260507223049 7 9 0.0 0.0 0.00 0.03 0.00 88 1017.0
20260507221550 7 9 0.0 0.0 0.00 0.03 0.00 88 1016.9
20260507220046 7 9 0.0 0.0 0.00 0.03 0.00 86 1016.9
20260507214547 7 9 0.0 0.0 0.00 0.05 0.03 86 1017.0
20260507213045 7 9 0.0 0.0 0.00 0.05 0.03 85 1016.9
20260507211554 8 9 0.0 0.0 0.00 0.05 0.03 83 1016.9
20260507210047 8 9 0.0 0.0 0.00 0.05 0.03 81 1016.9
20260507204543 8 9 0.0 0.0 0.00 0.05 0.03 80 1016.8
20260507203042 8 9 0.0 0.0 0.00 0.05 0.03 80 1016.8
20260507201541 8 9 0.0 0.0 0.00 0.05 0.03 81 1016.7
20260507200041 9 9 0.0 0.0 0.00 0.05 0.03 79 1016.5
20260507194540 9 9 0.0 3.2 0.00 0.05 0.03 79 1016.5
20260507193039 9 5 0.0 3.2 0.00 0.05 0.03 79 1016.4
20260507191537 9 5 0.0 3.2 0.00 0.05 0.03 80 1016.4
20260507190038 9 5 0.0 0.0 0.00 0.05 0.03 79 1016.3
20260507184535 10 5 0.0 0.0 0.00 0.05 0.03 79 1016.3
20260507183035 10 5 0.0 0.0 0.00 0.05 0.03 77 1016.2
20260507181534 10 5 0.0 0.0 0.00 0.05 0.03 76 1016.2
20260507180033 10 5 0.0 1.6 0.00 0.05 0.03 73 1016.2
20260507174545 10 5 0.0 4.8 0.00 0.08 0.03 72 1016.1
20260507173032 11 5 0.0 3.2 0.00 0.08 0.03 73 1016.0
20260507171541 11 5 0.0 0.0 0.00 0.08 0.03 72 1016.0
20260507170032 11 5 1.6 4.8 0.00 0.08 0.03 71 1016.0
20260507164530 11 17 0.0 3.2 0.00 0.08 0.03 71 1016.0
20260507163029 11 17 0.0 1.6 0.00 0.08 0.03 71 1016.0
20260507161528 11 17 0.0 0.0 0.00 0.08 0.03 73 1016.0
20260507160027 10 17 0.0 1.6 0.00 0.08 0.03 72 1016.0
20260507154524 10 17 0.0 3.2 0.00 0.08 0.03 74 1016.0
20260507153026 10 355 0.0 0.0 0.00 0.08 0.03 72 1015.9
20260507151522 10 355 0.0 0.0 0.00 0.08 0.03 76 1015.9
20260507150021 10 355 0.0 3.2 0.00 0.08 0.03 78 1015.8
20260507144621 10 355 0.0 4.8 0.00 0.08 0.03 77 1015.9
20260507143020 10 282 0.0 4.8 0.00 0.08 0.03 76 1015.9
20260507141522 10 302 0.0 1.6 0.00 0.08 0.03 79 1015.8
20260507140033 10 302 1.6 4.8 0.00 0.08 0.03 76 1015.9
20260507134618 10 303 0.0 3.2 0.00 0.10 0.03 79 1016.1